Year,Month,Day,Hour,Minute,Value (Times are PST for temperature in C)
2018,07,23,00,00,20.40
2018,07,23,00,01,20.40
2018,07,23,00,02,20.40
2018,07,23,00,03,20.40
2018,07,23,00,04,20.40
2018,07,23,00,05,20.40
2018,07,23,00,06,20.40
2018,07,23,00,07,20.40
2018,07,23,00,08,20.40
2018,07,23,00,09,20.40
2018,07,23,00,10,20.40
2018,07,23,00,11,20.40
2018,07,23,00,12,20.40
2018,07,23,00,13,20.40
2018,07,23,00,14,20.40
2018,07,23,00,15,20.30
2018,07,23,00,16,20.20
2018,07,23,00,17,20.20
2018,07,23,00,18,20.10
2018,07,23,00,19,20.10
2018,07,23,00,20,20.00
2018,07,23,00,21,19.90
2018,07,23,00,22,19.90
2018,07,23,00,23,19.80
2018,07,23,00,24,19.80
2018,07,23,00,25,19.70
2018,07,23,00,26,19.60
2018,07,23,00,27,19.60
2018,07,23,00,28,19.50
2018,07,23,00,29,19.50
2018,07,23,00,30,19.40
2018,07,23,00,31,19.40
2018,07,23,00,32,19.30
2018,07,23,00,33,19.30
2018,07,23,00,34,19.20
2018,07,23,00,35,19.20
2018,07,23,00,36,19.20
2018,07,23,00,37,19.10
2018,07,23,00,38,19.10
2018,07,23,00,39,19.10
2018,07,23,00,40,19.00
2018,07,23,00,41,18.90
2018,07,23,00,42,18.90
2018,07,23,00,43,18.80
2018,07,23,00,44,18.80
2018,07,23,00,45,18.70
2018,07,23,00,46,18.70
2018,07,23,00,47,18.70
2018,07,23,00,48,18.70
2018,07,23,00,49,18.70
2018,07,23,00,50,18.70
2018,07,23,00,51,18.70
2018,07,23,00,52,18.70
2018,07,23,00,53,18.70
2018,07,23,00,54,18.70
2018,07,23,00,55,18.70
2018,07,23,00,56,18.70
2018,07,23,00,57,18.70
2018,07,23,00,58,18.70
2018,07,23,00,59,18.80
2018,07,23,01,00,18.80
2018,07,23,01,01,18.90
2018,07,23,01,02,19.00
2018,07,23,01,03,19.10
2018,07,23,01,04,19.10
2018,07,23,01,05,19.20
2018,07,23,01,06,19.20
2018,07,23,01,07,19.20
2018,07,23,01,08,19.20
2018,07,23,01,09,19.20
2018,07,23,01,10,19.20
2018,07,23,01,11,19.20
2018,07,23,01,12,19.20
2018,07,23,01,13,19.20
2018,07,23,01,14,19.10
2018,07,23,01,15,19.10
2018,07,23,01,16,19.00
2018,07,23,01,17,19.00
2018,07,23,01,18,18.90
2018,07,23,01,19,18.90
2018,07,23,01,20,18.90
2018,07,23,01,21,18.80
2018,07,23,01,22,18.80
2018,07,23,01,23,18.80
2018,07,23,01,24,18.80
2018,07,23,01,25,18.70
2018,07,23,01,26,18.70
2018,07,23,01,27,18.70
2018,07,23,01,28,18.70
2018,07,23,01,29,18.60
2018,07,23,01,30,18.60
2018,07,23,01,31,18.60
2018,07,23,01,32,18.60
2018,07,23,01,33,18.60
2018,07,23,01,34,18.60
2018,07,23,01,35,18.60
2018,07,23,01,36,18.70
2018,07,23,01,37,18.70
2018,07,23,01,38,18.80
2018,07,23,01,39,18.90
2018,07,23,01,40,18.90
2018,07,23,01,41,19.00
2018,07,23,01,42,19.10
2018,07,23,01,43,19.20
2018,07,23,01,44,19.20
2018,07,23,01,45,19.30
2018,07,23,01,46,19.30
2018,07,23,01,47,19.30
2018,07,23,01,48,19.40
2018,07,23,01,49,19.50
2018,07,23,01,50,19.50
2018,07,23,01,51,19.50
2018,07,23,01,52,19.50
2018,07,23,01,53,19.50
2018,07,23,01,54,19.50
2018,07,23,01,55,19.40
2018,07,23,01,56,19.40
2018,07,23,01,57,19.40
2018,07,23,01,58,19.30
2018,07,23,01,59,19.30
2018,07,23,02,00,19.20
2018,07,23,02,01,19.20
2018,07,23,02,02,19.20
2018,07,23,02,03,19.20
2018,07,23,02,04,19.20
2018,07,23,02,05,19.10
2018,07,23,02,06,19.10
2018,07,23,02,07,19.10
2018,07,23,02,08,19.10
2018,07,23,02,09,19.10
2018,07,23,02,10,19.10
2018,07,23,02,11,19.10
2018,07,23,02,12,19.10
2018,07,23,02,13,19.10
2018,07,23,02,14,19.10
2018,07,23,02,15,19.10
2018,07,23,02,16,19.10
2018,07,23,02,17,19.10
2018,07,23,02,18,19.10
2018,07,23,02,19,19.10
2018,07,23,02,20,19.10
2018,07,23,02,21,19.10
2018,07,23,02,22,19.10
2018,07,23,02,23,19.00
2018,07,23,02,24,19.00
2018,07,23,02,25,19.00
2018,07,23,02,26,18.90
2018,07,23,02,27,18.90
2018,07,23,02,28,18.90
2018,07,23,02,29,18.80
2018,07,23,02,30,18.80
2018,07,23,02,31,18.80
2018,07,23,02,32,18.80
2018,07,23,02,33,18.80
2018,07,23,02,34,18.80
2018,07,23,02,35,18.80
2018,07,23,02,36,18.80
2018,07,23,02,37,18.80
2018,07,23,02,38,18.70
2018,07,23,02,39,18.80
2018,07,23,02,40,18.70
2018,07,23,02,41,18.70
2018,07,23,02,42,18.70
2018,07,23,02,43,18.70
2018,07,23,02,44,18.70
2018,07,23,02,45,18.70
2018,07,23,02,46,18.70
2018,07,23,02,47,18.70
2018,07,23,02,48,18.70
2018,07,23,02,49,18.70
2018,07,23,02,50,18.70
2018,07,23,02,51,18.70
2018,07,23,02,52,18.70
2018,07,23,02,53,18.70
2018,07,23,02,54,18.70
2018,07,23,02,55,18.70
2018,07,23,02,56,18.70
2018,07,23,02,57,18.70
2018,07,23,02,58,18.70
2018,07,23,02,59,18.70
2018,07,23,03,00,18.70
2018,07,23,03,01,18.80
2018,07,23,03,02,18.80
2018,07,23,03,03,18.90
2018,07,23,03,04,18.90
2018,07,23,03,05,19.00
2018,07,23,03,06,19.00
2018,07,23,03,07,19.00
2018,07,23,03,08,19.10
2018,07,23,03,09,19.10
2018,07,23,03,10,19.10
2018,07,23,03,11,19.10
2018,07,23,03,12,19.10
2018,07,23,03,13,19.10
2018,07,23,03,14,19.10
2018,07,23,03,15,19.10
2018,07,23,03,16,19.10
2018,07,23,03,17,19.00
2018,07,23,03,18,19.00
2018,07,23,03,19,19.00
2018,07,23,03,20,19.00
2018,07,23,03,21,19.00
2018,07,23,03,22,18.90
2018,07,23,03,23,18.90
2018,07,23,03,24,18.90
2018,07,23,03,25,18.90
2018,07,23,03,26,18.90
2018,07,23,03,27,18.80
2018,07,23,03,28,18.80
2018,07,23,03,29,18.80
2018,07,23,03,30,18.80
2018,07,23,03,31,18.80
2018,07,23,03,32,18.80
2018,07,23,03,33,18.90
2018,07,23,03,34,18.90
2018,07,23,03,35,18.90
2018,07,23,03,36,18.90
2018,07,23,03,37,18.90
2018,07,23,03,38,18.90
2018,07,23,03,39,18.90
2018,07,23,03,40,18.90
2018,07,23,03,41,18.90
2018,07,23,03,42,18.90
2018,07,23,03,43,18.90
2018,07,23,03,44,18.90
2018,07,23,03,45,18.90
2018,07,23,03,46,18.90
2018,07,23,03,47,18.90
2018,07,23,03,48,18.90
2018,07,23,03,49,18.90
2018,07,23,03,50,18.90
2018,07,23,03,51,18.90
2018,07,23,03,52,18.80
2018,07,23,03,53,18.80
2018,07,23,03,54,18.70
2018,07,23,03,55,18.70
2018,07,23,03,56,18.70
2018,07,23,03,57,18.60
2018,07,23,03,58,18.60
2018,07,23,03,59,18.50
2018,07,23,04,00,18.50
2018,07,23,04,01,18.40
2018,07,23,04,02,18.40
2018,07,23,04,03,18.40
2018,07,23,04,04,18.40
2018,07,23,04,05,18.40
2018,07,23,04,06,18.40
2018,07,23,04,07,18.40
2018,07,23,04,08,18.40
2018,07,23,04,09,18.40
2018,07,23,04,10,18.40
2018,07,23,04,11,18.40
2018,07,23,04,12,18.40
2018,07,23,04,13,18.40
2018,07,23,04,14,18.40
2018,07,23,04,15,18.40
2018,07,23,04,16,18.40
2018,07,23,04,17,18.50
2018,07,23,04,18,18.50
2018,07,23,04,19,18.50
2018,07,23,04,20,18.50
2018,07,23,04,21,18.50
2018,07,23,04,22,18.50
2018,07,23,04,23,18.50
2018,07,23,04,24,18.50
2018,07,23,04,25,18.50
2018,07,23,04,26,18.40
2018,07,23,04,27,18.40
2018,07,23,04,28,18.40
2018,07,23,04,29,18.40
2018,07,23,04,30,18.40
2018,07,23,04,31,18.30
2018,07,23,04,32,18.30
2018,07,23,04,33,18.30
2018,07,23,04,34,18.30
2018,07,23,04,35,18.30
2018,07,23,04,36,18.30
2018,07,23,04,37,18.30
2018,07,23,04,38,18.30
2018,07,23,04,39,18.30
2018,07,23,04,40,18.30
2018,07,23,04,41,18.30
2018,07,23,04,42,18.30
2018,07,23,04,43,18.30
2018,07,23,04,44,18.30
2018,07,23,04,45,18.30
2018,07,23,04,46,18.30
2018,07,23,04,47,18.30
2018,07,23,04,48,18.30
2018,07,23,04,49,18.30
2018,07,23,04,50,18.20
2018,07,23,04,51,18.20
2018,07,23,04,52,18.20
2018,07,23,04,53,18.20
2018,07,23,04,54,18.20
2018,07,23,04,55,18.20
2018,07,23,04,56,18.10
2018,07,23,04,57,18.10
2018,07,23,04,58,18.10
2018,07,23,04,59,18.10
2018,07,23,05,00,18.10
2018,07,23,05,01,18.00
2018,07,23,05,02,18.00
2018,07,23,05,03,17.90
2018,07,23,05,04,17.90
2018,07,23,05,05,17.90
2018,07,23,05,06,17.90
2018,07,23,05,07,17.90
2018,07,23,05,08,17.80
2018,07,23,05,09,17.80
2018,07,23,05,10,17.80
2018,07,23,05,11,17.80
2018,07,23,05,12,17.80
2018,07,23,05,13,17.70
2018,07,23,05,14,17.70
2018,07,23,05,15,17.70
2018,07,23,05,16,17.70
2018,07,23,05,17,17.70
2018,07,23,05,18,17.60
2018,07,23,05,19,17.60
2018,07,23,05,20,17.60
2018,07,23,05,21,17.60
2018,07,23,05,22,17.60
2018,07,23,05,23,17.60
2018,07,23,05,24,17.60
2018,07,23,05,25,17.60
2018,07,23,05,26,17.60
2018,07,23,05,27,17.50
2018,07,23,05,28,17.50
2018,07,23,05,29,17.50
2018,07,23,05,30,17.50
2018,07,23,05,31,17.50
2018,07,23,05,32,17.50
2018,07,23,05,33,17.50
2018,07,23,05,34,17.40
2018,07,23,05,35,17.40
2018,07,23,05,36,17.40
2018,07,23,05,37,17.40
2018,07,23,05,38,17.40
2018,07,23,05,39,17.40
2018,07,23,05,40,17.40
2018,07,23,05,41,17.40
2018,07,23,05,42,17.40
2018,07,23,05,43,17.40
2018,07,23,05,44,17.40
2018,07,23,05,45,17.50
2018,07,23,05,46,17.40
2018,07,23,05,47,17.50
2018,07,23,05,48,17.50
2018,07,23,05,49,17.40
2018,07,23,05,50,17.40
2018,07,23,05,51,17.40
2018,07,23,05,52,17.40
2018,07,23,05,53,17.40
2018,07,23,05,54,17.40
2018,07,23,05,55,17.40
2018,07,23,05,56,17.40
2018,07,23,05,57,17.40
2018,07,23,05,58,17.30
2018,07,23,05,59,17.30
2018,07,23,06,00,17.30
2018,07,23,06,01,17.30
2018,07,23,06,02,17.30
2018,07,23,06,03,17.30
2018,07,23,06,04,17.30
2018,07,23,06,05,17.30
2018,07,23,06,06,17.30
2018,07,23,06,07,17.30
2018,07,23,06,08,17.30
2018,07,23,06,09,17.30
2018,07,23,06,10,17.30
2018,07,23,06,11,17.30
2018,07,23,06,12,17.40
2018,07,23,06,13,17.40
2018,07,23,06,14,17.40
2018,07,23,06,15,17.40
2018,07,23,06,16,17.50
2018,07,23,06,17,17.50
2018,07,23,06,18,17.60
2018,07,23,06,19,17.60
2018,07,23,06,20,17.70
2018,07,23,06,21,17.70
2018,07,23,06,22,17.80
2018,07,23,06,23,17.80
2018,07,23,06,24,17.90
2018,07,23,06,25,17.90
2018,07,23,06,26,18.00
2018,07,23,06,27,18.10
2018,07,23,06,28,18.10
2018,07,23,06,29,18.20
2018,07,23,06,30,18.20
2018,07,23,06,31,18.30
2018,07,23,06,32,18.30
2018,07,23,06,33,18.30
2018,07,23,06,34,18.40
2018,07,23,06,35,18.40
2018,07,23,06,36,18.40
2018,07,23,06,37,18.50
2018,07,23,06,38,18.50
2018,07,23,06,39,18.60
2018,07,23,06,40,18.60
2018,07,23,06,41,18.60
2018,07,23,06,42,18.60
2018,07,23,06,43,18.70
2018,07,23,06,44,18.70
2018,07,23,06,45,18.70
2018,07,23,06,46,18.70
2018,07,23,06,47,18.70
2018,07,23,06,48,18.70
2018,07,23,06,49,18.70
2018,07,23,06,50,18.80
2018,07,23,06,51,18.80
2018,07,23,06,52,18.80
2018,07,23,06,53,18.80
2018,07,23,06,54,18.80
2018,07,23,06,55,18.80
2018,07,23,06,56,18.80
2018,07,23,06,57,18.80
2018,07,23,06,58,18.80
2018,07,23,06,59,18.80
2018,07,23,07,00,18.80
2018,07,23,07,01,18.80
2018,07,23,07,02,18.80
2018,07,23,07,03,18.80
2018,07,23,07,04,18.80
2018,07,23,07,05,18.90
2018,07,23,07,06,18.90
2018,07,23,07,07,18.90
2018,07,23,07,08,18.90
2018,07,23,07,09,18.90
2018,07,23,07,10,18.90
2018,07,23,07,11,18.90
2018,07,23,07,12,19.00
2018,07,23,07,13,19.00
2018,07,23,07,14,19.00
2018,07,23,07,15,19.00
2018,07,23,07,16,19.00
2018,07,23,07,17,19.10
2018,07,23,07,18,19.10
2018,07,23,07,19,19.10
2018,07,23,07,20,19.10
2018,07,23,07,21,19.10
2018,07,23,07,22,19.10
2018,07,23,07,23,19.20
2018,07,23,07,24,19.20
2018,07,23,07,25,19.20
2018,07,23,07,26,19.20
2018,07,23,07,27,19.20
2018,07,23,07,28,19.20
2018,07,23,07,29,19.30
2018,07,23,07,30,19.30
2018,07,23,07,31,19.40
2018,07,23,07,32,19.40
2018,07,23,07,33,19.50
2018,07,23,07,34,19.50
2018,07,23,07,35,19.60
2018,07,23,07,36,19.60
2018,07,23,07,37,19.60
2018,07,23,07,38,19.60
2018,07,23,07,39,19.70
2018,07,23,07,40,19.70
2018,07,23,07,41,19.70
2018,07,23,07,42,19.80
2018,07,23,07,43,19.80
2018,07,23,07,44,19.80
2018,07,23,07,45,19.80
2018,07,23,07,46,19.80
2018,07,23,07,47,19.80
2018,07,23,07,48,19.80
2018,07,23,07,49,19.80
2018,07,23,07,50,19.80
2018,07,23,07,51,19.80
2018,07,23,07,52,19.80
2018,07,23,07,53,19.80
2018,07,23,07,54,19.80
2018,07,23,07,55,19.80
2018,07,23,07,56,19.80
2018,07,23,07,57,19.80
2018,07,23,07,58,19.90
2018,07,23,07,59,19.90
2018,07,23,08,00,19.90
2018,07,23,08,01,19.90
2018,07,23,08,02,19.90
2018,07,23,08,03,19.90
2018,07,23,08,04,19.90
2018,07,23,08,05,19.90
2018,07,23,08,06,20.00
2018,07,23,08,07,20.00
2018,07,23,08,08,20.10
2018,07,23,08,09,20.10
2018,07,23,08,10,20.20
2018,07,23,08,11,20.20
2018,07,23,08,12,20.30
2018,07,23,08,13,20.30
2018,07,23,08,14,20.40
2018,07,23,08,15,20.40
2018,07,23,08,16,20.40
2018,07,23,08,17,20.40
2018,07,23,08,18,20.40
2018,07,23,08,19,20.40
2018,07,23,08,20,20.40
2018,07,23,08,21,20.40
2018,07,23,08,22,20.40
2018,07,23,08,23,20.40
2018,07,23,08,24,20.40
2018,07,23,08,25,20.40
2018,07,23,08,26,20.40
2018,07,23,08,27,20.40
2018,07,23,08,28,20.40
2018,07,23,08,29,20.50
2018,07,23,08,30,20.50
2018,07,23,08,31,20.60
2018,07,23,08,32,20.70
2018,07,23,08,33,20.70
2018,07,23,08,34,20.70
2018,07,23,08,35,20.70
2018,07,23,08,36,20.70
2018,07,23,08,37,20.80
2018,07,23,08,38,20.80
2018,07,23,08,39,20.80
2018,07,23,08,40,20.80
2018,07,23,08,41,20.80
2018,07,23,08,42,20.80
2018,07,23,08,43,20.80
2018,07,23,08,44,20.80
2018,07,23,08,45,20.90
2018,07,23,08,46,20.90
2018,07,23,08,47,20.90
2018,07,23,08,48,20.90
2018,07,23,08,49,20.90
2018,07,23,08,50,20.90
2018,07,23,08,51,20.90
2018,07,23,08,52,20.90
2018,07,23,08,53,21.00
2018,07,23,08,54,21.00
2018,07,23,08,55,21.00
2018,07,23,08,56,21.10
2018,07,23,08,57,21.20
2018,07,23,08,58,21.20
2018,07,23,08,59,21.20
2018,07,23,09,00,21.20
2018,07,23,09,01,21.20
2018,07,23,09,02,21.20
2018,07,23,09,03,21.20
2018,07,23,09,04,21.20
2018,07,23,09,05,21.30
2018,07,23,09,06,21.30
2018,07,23,09,07,21.40
2018,07,23,09,08,21.40
2018,07,23,09,09,21.40
2018,07,23,09,10,21.50
2018,07,23,09,11,21.60
2018,07,23,09,12,21.70
2018,07,23,09,13,21.70
2018,07,23,09,14,21.80
2018,07,23,09,15,21.80
2018,07,23,09,16,21.80
2018,07,23,09,17,21.70
2018,07,23,09,18,21.70
2018,07,23,09,19,21.80
2018,07,23,09,20,21.80
2018,07,23,09,21,21.80
2018,07,23,09,22,21.70
2018,07,23,09,23,21.60
2018,07,23,09,24,21.50
2018,07,23,09,25,21.40
2018,07,23,09,26,21.40
2018,07,23,09,27,21.30
2018,07,23,09,28,21.40
2018,07,23,09,29,21.40
2018,07,23,09,30,21.50
2018,07,23,09,31,21.50
2018,07,23,09,32,21.60
2018,07,23,09,33,21.70
2018,07,23,09,34,21.80
2018,07,23,09,35,21.90
2018,07,23,09,36,21.90
2018,07,23,09,37,21.90
2018,07,23,09,38,21.90
2018,07,23,09,39,21.80
2018,07,23,09,40,21.70
2018,07,23,09,41,21.70
2018,07,23,09,42,21.70
2018,07,23,09,43,21.60
2018,07,23,09,44,21.50
2018,07,23,09,45,21.50
2018,07,23,09,46,21.50
2018,07,23,09,47,21.50
2018,07,23,09,48,21.60
2018,07,23,09,49,21.70
2018,07,23,09,50,21.70
2018,07,23,09,51,21.80
2018,07,23,09,52,21.80
2018,07,23,09,53,21.80
2018,07,23,09,54,21.90
2018,07,23,09,55,22.00
2018,07,23,09,56,22.00
2018,07,23,09,57,22.10
2018,07,23,09,58,22.20
2018,07,23,09,59,22.20
2018,07,23,10,00,22.30
2018,07,23,10,01,22.40
2018,07,23,10,02,22.50
2018,07,23,10,03,22.60
2018,07,23,10,04,22.70
2018,07,23,10,05,22.70
2018,07,23,10,06,22.80
2018,07,23,10,07,22.80
2018,07,23,10,08,22.70
2018,07,23,10,09,22.70
2018,07,23,10,10,22.60
2018,07,23,10,11,22.60
2018,07,23,10,12,22.70
2018,07,23,10,13,22.70
2018,07,23,10,14,22.70
2018,07,23,10,15,22.70
2018,07,23,10,16,22.70
2018,07,23,10,17,22.70
2018,07,23,10,18,22.80
2018,07,23,10,19,22.80
2018,07,23,10,20,22.70
2018,07,23,10,21,22.70
2018,07,23,10,22,22.70
2018,07,23,10,23,22.60
2018,07,23,10,24,22.70
2018,07,23,10,25,22.70
2018,07,23,10,26,22.70
2018,07,23,10,27,22.70
2018,07,23,10,28,22.80
2018,07,23,10,29,22.80
2018,07,23,10,30,22.80
2018,07,23,10,31,22.90
2018,07,23,10,32,22.90
2018,07,23,10,33,23.00
2018,07,23,10,34,23.10
2018,07,23,10,35,23.10
2018,07,23,10,36,23.00
2018,07,23,10,37,23.00
2018,07,23,10,38,23.00
2018,07,23,10,39,23.00
2018,07,23,10,40,23.00
2018,07,23,10,41,22.90
2018,07,23,10,42,22.90
2018,07,23,10,43,22.90
2018,07,23,10,44,22.90
2018,07,23,10,45,23.00
2018,07,23,10,46,23.10
2018,07,23,10,47,23.00
2018,07,23,10,48,23.10
2018,07,23,10,49,23.00
2018,07,23,10,50,23.10
2018,07,23,10,51,23.10
2018,07,23,10,52,23.20
2018,07,23,10,53,23.10
2018,07,23,10,54,23.20
2018,07,23,10,55,23.20
2018,07,23,10,56,23.20
2018,07,23,10,57,23.30
2018,07,23,10,58,23.40
2018,07,23,10,59,23.50
2018,07,23,11,00,23.60
2018,07,23,11,01,23.70
2018,07,23,11,02,23.70
2018,07,23,11,03,23.50
2018,07,23,11,04,23.50
2018,07,23,11,05,23.50
2018,07,23,11,06,23.50
2018,07,23,11,07,23.60
2018,07,23,11,08,23.60
2018,07,23,11,09,23.70
2018,07,23,11,10,23.70
2018,07,23,11,11,23.70
2018,07,23,11,12,23.80
2018,07,23,11,13,23.90
2018,07,23,11,14,24.00
2018,07,23,11,15,24.00
2018,07,23,11,16,24.10
2018,07,23,11,17,24.20
2018,07,23,11,18,24.30
2018,07,23,11,19,24.30
2018,07,23,11,20,24.30
2018,07,23,11,21,24.40
2018,07,23,11,22,24.50
2018,07,23,11,23,24.60
2018,07,23,11,24,24.50
2018,07,23,11,25,24.50
2018,07,23,11,26,24.50
2018,07,23,11,27,24.50
2018,07,23,11,28,24.60
2018,07,23,11,29,24.80
2018,07,23,11,30,25.00
2018,07,23,11,31,25.10
2018,07,23,11,32,25.20
2018,07,23,11,33,25.20
2018,07,23,11,34,25.10
2018,07,23,11,35,25.00
2018,07,23,11,36,24.90
2018,07,23,11,37,24.80
2018,07,23,11,38,24.80
2018,07,23,11,39,24.80
2018,07,23,11,40,24.70
2018,07,23,11,41,24.70
2018,07,23,11,42,24.70
2018,07,23,11,43,24.80
2018,07,23,11,44,24.70
2018,07,23,11,45,24.60
2018,07,23,11,46,24.60
2018,07,23,11,47,24.60
2018,07,23,11,48,24.60
2018,07,23,11,49,24.60
2018,07,23,11,50,24.60
2018,07,23,11,51,24.70
2018,07,23,11,52,24.60
2018,07,23,11,53,24.70
2018,07,23,11,54,24.60
2018,07,23,11,55,24.60
2018,07,23,11,56,24.60
2018,07,23,11,57,24.60
2018,07,23,11,58,24.60
2018,07,23,11,59,24.50
2018,07,23,12,00,24.50
2018,07,23,12,01,24.50
2018,07,23,12,02,24.50
2018,07,23,12,03,24.50
2018,07,23,12,04,24.60
2018,07,23,12,05,24.60
2018,07,23,12,06,24.60
2018,07,23,12,07,24.60
2018,07,23,12,08,24.60
2018,07,23,12,09,24.50
2018,07,23,12,10,24.40
2018,07,23,12,11,24.40
2018,07,23,12,12,24.40
2018,07,23,12,13,24.50
2018,07,23,12,14,24.50
2018,07,23,12,15,24.70
2018,07,23,12,16,24.80
2018,07,23,12,17,24.80
2018,07,23,12,18,24.70
2018,07,23,12,19,24.70
2018,07,23,12,20,24.70
2018,07,23,12,21,24.60
2018,07,23,12,22,24.50
2018,07,23,12,23,24.50
2018,07,23,12,24,24.50
2018,07,23,12,25,24.60
2018,07,23,12,26,24.60
2018,07,23,12,27,24.60
2018,07,23,12,28,24.60
2018,07,23,12,29,24.60
2018,07,23,12,30,24.60
2018,07,23,12,31,24.70
2018,07,23,12,32,24.70
2018,07,23,12,33,24.80
2018,07,23,12,34,24.80
2018,07,23,12,35,24.90
2018,07,23,12,36,25.00
2018,07,23,12,37,25.10
2018,07,23,12,38,25.20
2018,07,23,12,39,25.20
2018,07,23,12,40,25.10
2018,07,23,12,41,25.10
2018,07,23,12,42,25.00
2018,07,23,12,43,25.00
2018,07,23,12,44,25.00
2018,07,23,12,45,25.00
2018,07,23,12,46,25.00
2018,07,23,12,47,25.10
2018,07,23,12,48,25.10
2018,07,23,12,49,25.10
2018,07,23,12,50,25.10
2018,07,23,12,51,25.10
2018,07,23,12,52,25.20
2018,07,23,12,53,25.20
2018,07,23,12,54,25.20
2018,07,23,12,55,25.20
2018,07,23,12,56,25.20
2018,07,23,12,57,25.20
2018,07,23,12,58,25.20
2018,07,23,12,59,25.10
2018,07,23,13,00,25.00
2018,07,23,13,01,24.90
2018,07,23,13,02,24.90
2018,07,23,13,03,24.80
2018,07,23,13,04,24.80
2018,07,23,13,05,24.80
2018,07,23,13,06,24.70
2018,07,23,13,07,24.70
2018,07,23,13,08,24.60
2018,07,23,13,09,24.60
2018,07,23,13,10,24.60
2018,07,23,13,11,24.60
2018,07,23,13,12,24.70
2018,07,23,13,13,24.70
2018,07,23,13,14,24.70
2018,07,23,13,15,24.70
2018,07,23,13,16,24.60
2018,07,23,13,17,24.50
2018,07,23,13,18,24.50
2018,07,23,13,19,24.50
2018,07,23,13,20,24.50
2018,07,23,13,21,24.60
2018,07,23,13,22,24.60
2018,07,23,13,23,24.60
2018,07,23,13,24,24.60
2018,07,23,13,25,24.60
2018,07,23,13,26,24.60
2018,07,23,13,27,24.60
2018,07,23,13,28,24.70
2018,07,23,13,29,24.70
2018,07,23,13,30,24.70
2018,07,23,13,31,24.80
2018,07,23,13,32,24.80
2018,07,23,13,33,24.80
2018,07,23,13,34,24.70
2018,07,23,13,35,24.70
2018,07,23,13,36,24.70
2018,07,23,13,37,24.70
2018,07,23,13,38,24.60
2018,07,23,13,39,24.60
2018,07,23,13,40,24.50
2018,07,23,13,41,24.40
2018,07,23,13,42,24.40
2018,07,23,13,43,24.30
2018,07,23,13,44,24.20
2018,07,23,13,45,24.20
2018,07,23,13,46,24.20
2018,07,23,13,47,24.20
2018,07,23,13,48,24.30
2018,07,23,13,49,24.30
2018,07,23,13,50,24.30
2018,07,23,13,51,24.30
2018,07,23,13,52,24.30
2018,07,23,13,53,24.30
2018,07,23,13,54,24.20
2018,07,23,13,55,24.20
2018,07,23,13,56,24.20
2018,07,23,13,57,24.10
2018,07,23,13,58,24.00
2018,07,23,13,59,23.90
2018,07,23,14,00,23.90
2018,07,23,14,01,23.90
2018,07,23,14,02,23.90
2018,07,23,14,03,23.90
2018,07,23,14,04,24.00
2018,07,23,14,05,24.00
2018,07,23,14,06,24.00
2018,07,23,14,07,24.00
2018,07,23,14,08,24.00
2018,07,23,14,09,24.00
2018,07,23,14,10,24.00
2018,07,23,14,11,24.00
2018,07,23,14,12,24.10
2018,07,23,14,13,24.10
2018,07,23,14,14,24.30
2018,07,23,14,15,24.40
2018,07,23,14,16,24.50
2018,07,23,14,17,24.60
2018,07,23,14,18,24.70
2018,07,23,14,19,24.80
2018,07,23,14,20,24.90
2018,07,23,14,21,25.00
2018,07,23,14,22,25.10
2018,07,23,14,23,25.20
2018,07,23,14,24,25.20
2018,07,23,14,25,25.20
2018,07,23,14,26,25.20
2018,07,23,14,27,25.10
2018,07,23,14,28,25.10
2018,07,23,14,29,25.10
2018,07,23,14,30,25.20
2018,07,23,14,31,25.20
2018,07,23,14,32,25.20
2018,07,23,14,33,25.20
2018,07,23,14,34,25.20
2018,07,23,14,35,25.20
2018,07,23,14,36,25.20
2018,07,23,14,37,25.20
2018,07,23,14,38,25.20
2018,07,23,14,39,25.20
2018,07,23,14,40,25.20
2018,07,23,14,41,25.20
2018,07,23,14,42,25.10
2018,07,23,14,43,25.10
2018,07,23,14,44,25.00
2018,07,23,14,45,24.90
2018,07,23,14,46,24.90
2018,07,23,14,47,24.90
2018,07,23,14,48,24.90
2018,07,23,14,49,24.90
2018,07,23,14,50,25.00
2018,07,23,14,51,25.00
2018,07,23,14,52,25.10
2018,07,23,14,53,25.10
2018,07,23,14,54,25.00
2018,07,23,14,55,24.90
2018,07,23,14,56,24.90
2018,07,23,14,57,24.90
2018,07,23,14,58,25.00
2018,07,23,14,59,25.10
2018,07,23,15,00,25.10
2018,07,23,15,01,25.20
2018,07,23,15,02,25.30
2018,07,23,15,03,25.30
2018,07,23,15,04,25.30
2018,07,23,15,05,25.30
2018,07,23,15,06,25.30
2018,07,23,15,07,25.30
2018,07,23,15,08,25.20
2018,07,23,15,09,25.10
2018,07,23,15,10,25.00
2018,07,23,15,11,24.90
2018,07,23,15,12,24.80
2018,07,23,15,13,24.80
2018,07,23,15,14,24.80
2018,07,23,15,15,24.80
2018,07,23,15,16,24.80
2018,07,23,15,17,24.70
2018,07,23,15,18,24.70
2018,07,23,15,19,24.70
2018,07,23,15,20,24.70
2018,07,23,15,21,24.70
2018,07,23,15,22,24.70
2018,07,23,15,23,24.70
2018,07,23,15,24,24.70
2018,07,23,15,25,24.90
2018,07,23,15,26,24.90
2018,07,23,15,27,24.90
2018,07,23,15,28,24.90
2018,07,23,15,29,25.00
2018,07,23,15,30,25.00
2018,07,23,15,31,25.10
2018,07,23,15,32,25.10
2018,07,23,15,33,25.20
2018,07,23,15,34,25.20
2018,07,23,15,35,25.30
2018,07,23,15,36,25.30
2018,07,23,15,37,25.40
2018,07,23,15,38,25.50
2018,07,23,15,39,25.50
2018,07,23,15,40,25.60
2018,07,23,15,41,25.60
2018,07,23,15,42,25.70
2018,07,23,15,43,25.70
2018,07,23,15,44,25.70
2018,07,23,15,45,25.70
2018,07,23,15,46,25.70
2018,07,23,15,47,25.70
2018,07,23,15,48,25.70
2018,07,23,15,49,25.80
2018,07,23,15,50,25.80
2018,07,23,15,51,25.80
2018,07,23,15,52,25.80
2018,07,23,15,53,25.80
2018,07,23,15,54,25.80
2018,07,23,15,55,25.80
2018,07,23,15,56,25.80
2018,07,23,15,57,25.80
2018,07,23,15,58,25.80
2018,07,23,15,59,25.90
2018,07,23,16,00,25.90
2018,07,23,16,01,25.90
2018,07,23,16,02,25.90
2018,07,23,16,03,25.90
2018,07,23,16,04,25.90
2018,07,23,16,05,25.90
2018,07,23,16,06,25.90
2018,07,23,16,07,25.90
2018,07,23,16,08,25.90
2018,07,23,16,09,25.90
2018,07,23,16,10,26.00
2018,07,23,16,11,26.00
2018,07,23,16,12,26.10
2018,07,23,16,13,26.20
2018,07,23,16,14,26.30
2018,07,23,16,15,26.30
2018,07,23,16,16,26.30
2018,07,23,16,17,26.20
2018,07,23,16,18,26.20
2018,07,23,16,19,26.20
2018,07,23,16,20,26.10
2018,07,23,16,21,26.00
2018,07,23,16,22,26.00
2018,07,23,16,23,25.90
2018,07,23,16,24,25.90
2018,07,23,16,25,25.90
2018,07,23,16,26,25.90
2018,07,23,16,27,25.90
2018,07,23,16,28,25.90
2018,07,23,16,29,25.80
2018,07,23,16,30,25.80
2018,07,23,16,31,25.70
2018,07,23,16,32,25.70
2018,07,23,16,33,25.70
2018,07,23,16,34,25.70
2018,07,23,16,35,25.60
2018,07,23,16,36,25.50
2018,07,23,16,37,25.40
2018,07,23,16,38,25.30
2018,07,23,16,39,25.20
2018,07,23,16,40,25.10
2018,07,23,16,41,25.00
2018,07,23,16,42,25.00
2018,07,23,16,43,24.90
2018,07,23,16,44,24.90
2018,07,23,16,45,24.90
2018,07,23,16,46,24.90
2018,07,23,16,47,24.80
2018,07,23,16,48,24.80
2018,07,23,16,49,24.90
2018,07,23,16,50,24.90
2018,07,23,16,51,25.00
2018,07,23,16,52,25.10
2018,07,23,16,53,25.10
2018,07,23,16,54,25.10
2018,07,23,16,55,25.20
2018,07,23,16,56,25.30
2018,07,23,16,57,25.30
2018,07,23,16,58,25.30
2018,07,23,16,59,25.40
2018,07,23,17,00,25.50
2018,07,23,17,01,25.60
2018,07,23,17,02,25.70
2018,07,23,17,03,25.80
2018,07,23,17,04,25.80
2018,07,23,17,05,25.80
2018,07,23,17,06,25.90
2018,07,23,17,07,25.90
2018,07,23,17,08,25.90
2018,07,23,17,09,26.00
2018,07,23,17,10,26.00
2018,07,23,17,11,26.00
2018,07,23,17,12,26.00
2018,07,23,17,13,26.10
2018,07,23,17,14,26.10
2018,07,23,17,15,26.20
2018,07,23,17,16,26.20
2018,07,23,17,17,26.30
2018,07,23,17,18,26.30
2018,07,23,17,19,26.40